GW4269 Weather Reports


Display with metric or nautical units.
time (UTC)temp
F
wind
direction
speed
MPH
gust
MPH
rain 1hr
in
rain 24hr
in
rain mn
in
humidity
%
barometer
mb
20260507155456 44 278 8.0 13.0 0.00 0.00 0.00 65 1012.9
20260507154956 43 303 10.0 14.0 0.00 0.00 0.00 62 1013.2
20260507154455 45 244 10.0 14.0 0.00 0.00 0.00 61 1013.2
20260507153955 47 304 9.0 12.0 0.00 0.00 0.00 60 1013.2
20260507153456 46 239 9.0 15.0 0.00 0.00 0.00 64 1013.2
20260507152956 46 282 8.0 15.0 0.00 0.00 0.00 63 1013.2
20260507152456 45 280 10.0 14.0 0.00 0.00 0.00 69 1013.2
20260507151956 44 273 11.0 13.0 0.00 0.00 0.00 66 1013.2
20260507151456 44 277 9.0 13.0 0.00 0.00 0.00 69 1013.2
20260507150955 44 294 7.0 10.0 0.00 0.00 0.00 69 1013.2
20260507150457 43 295 7.0 10.0 0.00 0.00 0.00 72 1013.2
20260507145956 43 273 7.0 13.0 0.00 0.00 0.00 67 1013.2
20260507145455 43 306 10.0 13.0 0.00 0.00 0.00 70 1013.2
20260507144956 43 286 9.0 11.0 0.00 0.00 0.00 71 1013.2
20260507144456 42 15 8.0 11.0 0.00 0.00 0.00 70 1013.2
20260507143955 42 267 8.0 10.0 0.00 0.00 0.00 69 1013.2
20260507143456 42 285 7.0 10.0 0.00 0.00 0.00 70 1013.2
20260507142956 42 288 9.0 11.0 0.00 0.00 0.00 71 1013.2
20260507142502 42 255 7.0 10.0 0.00 0.00 0.00 73 1013.2
20260507141956 42 270 5.0 9.0 0.00 0.00 0.00 74 1013.2
20260507141456 41 236 7.0 10.0 0.00 0.00 0.00 72 1013.2
20260507140513 40 256 7.0 10.0 0.00 0.00 0.00 74 1013.2
20260507135957 40 239 7.0 8.0 0.00 0.00 0.00 77 1013.2
20260507135455 39 263 7.0 9.0 0.00 0.00 0.00 76 1013.5
20260507134956 39 245 7.0 9.0 0.00 0.00 0.00 76 1013.2
20260507134456 39 224 6.0 9.0 0.00 0.00 0.00 78 1013.2
20260507133956 39 219 6.0 9.0 0.00 0.00 0.00 78 1013.5
20260507133455 38 231 8.0 9.0 0.00 0.00 0.00 79 1013.5
20260507132956 38 220 7.0 9.0 0.00 0.00 0.00 79 1013.5
20260507132456 38 237 7.0 9.0 0.00 0.00 0.00 79 1013.5
20260507131956 37 230 8.0 9.0 0.00 0.00 0.00 79 1013.5
20260507131456 37 249 7.0 10.0 0.00 0.00 0.00 80 1013.5
20260507130956 37 242 7.0 9.0 0.00 0.00 0.00 79 1013.5
20260507130456 37 236 9.0 11.0 0.00 0.00 0.00 79 1013.2
20260507125955 37 218 8.0 10.0 0.00 0.00 0.00 80 1013.2
20260507125455 37 218 8.0 9.0 0.00 0.00 0.00 81 1013.2
20260507124955 37 206 8.0 9.0 0.00 0.00 0.00 81 1013.2
20260507124456 37 222 8.0 9.0 0.00 0.00 0.00 81 1013.2
20260507123956 37 231 7.0 9.0 0.00 0.00 0.00 80 1013.2
20260507123455 36 224 7.0 8.0 0.00 0.00 0.00 82 1013.2
20260507122955 36 223 7.0 8.0 0.00 0.00 0.00 82 1013.2
20260507122455 36 210 7.0 9.0 0.00 0.00 0.00 82 1013.2
20260507121957 36 222 6.0 8.0 0.00 0.00 0.00 83 1013.2
20260507121455 36 208 6.0 8.0 0.00 0.00 0.00 84 1013.2
20260507120955 35 227 6.0 7.0 0.00 0.00 0.00 84 1013.2
20260507120455 35 218 6.0 7.0 0.00 0.00 0.00 84 1013.2
20260507115956 35 221 5.0 7.0 0.00 0.00 0.00 85 1013.2
20260507115456 35 219 5.0 6.0 0.00 0.00 0.00 85 1013.2
20260507114955 35 223 5.0 6.0 0.00 0.00 0.00 84 1013.2
20260507114457 35 238 5.0 6.0 0.00 0.00 0.00 85 1013.2
20260507113955 35 213 5.0 6.0 0.00 0.00 0.00 86 1013.2
20260507113456 35 222 4.0 5.0 0.00 0.00 0.00 85 1013.2
20260507112956 35 216 5.0 6.0 0.00 0.00 0.00 85 1013.2
20260507112456 35 223 5.0 6.0 0.00 0.00 0.00 86 1013.2
20260507111955 35 213 6.0 6.0 0.00 0.00 0.00 86 1013.2
20260507111456 35 208 4.0 6.0 0.00 0.00 0.00 87 1013.2
20260507110956 35 233 4.0 6.0 0.00 0.00 0.00 87 1013.2
20260507110455 35 209 5.0 8.0 0.00 0.00 0.00 85 1013.2
20260507105955 35 204 7.0 8.0 0.00 0.00 0.00 84 1013.2
20260507105455 35 203 5.0 7.0 0.00 0.00 0.00 85 1013.2
20260507104955 35 193 5.0 7.0 0.00 0.00 0.00 84 1013.2
20260507104455 35 202 5.0 8.0 0.00 0.00 0.00 84 1013.2
20260507103956 35 208 5.0 8.0 0.00 0.00 0.00 83 1013.2
20260507103456 35 192 6.0 7.0 0.00 0.00 0.00 84 1013.2
20260507102955 35 208 5.0 7.0 0.00 0.00 0.00 84 1013.2
20260507102455 35 192 5.0 7.0 0.00 0.00 0.00 84 1013.2
20260507101955 35 201 6.0 7.0 0.00 0.00 0.00 83 1013.2
20260507101455 35 205 6.0 7.0 0.00 0.00 0.00 83 1013.2
20260507100955 35 186 5.0 7.0 0.00 0.00 0.00 83 1013.2
20260507100455 35 208 6.0 7.0 0.00 0.00 0.00 83 1013.2
20260507095955 35 202 6.0 7.0 0.00 0.00 0.00 83 1013.2
20260507095455 35 196 5.0 6.0 0.00 0.00 0.00 84 1013.2
20260507094956 35 190 5.0 6.0 0.00 0.00 0.00 84 1013.2
20260507094455 35 204 4.0 6.0 0.00 0.00 0.00 84 1013.2
20260507093956 35 193 5.0 6.0 0.00 0.00 0.00 84 1013.2
20260507093455 35 209 5.0 6.0 0.00 0.00 0.00 84 1013.2
20260507092956 35 195 5.0 6.0 0.00 0.00 0.00 85 1013.2
20260507092455 35 230 5.0 7.0 0.00 0.00 0.00 83 1013.2
20260507091955 35 214 5.0 7.0 0.00 0.00 0.00 82 1013.2
20260507091455 35 192 6.0 7.0 0.00 0.00 0.00 82 1013.2
20260507090955 35 195 5.0 6.0 0.00 0.00 0.00 82 1013.2
20260507090455 35 201 5.0 6.0 0.00 0.00 0.00 82 1013.2
20260507085955 35 207 5.0 6.0 0.00 0.00 0.00 83 1013.2
20260507085455 35 206 5.0 6.0 0.00 0.00 0.00 83 1013.2
20260507084957 35 204 6.0 6.0 0.00 0.00 0.00 83 1013.2
20260507084455 34 210 5.0 6.0 0.00 0.00 0.00 83 1013.2
20260507083955 34 195 4.0 6.0 0.00 0.00 0.00 84 1013.2
20260507083455 34 220 4.0 5.0 0.00 0.00 0.00 86 1013.2
20260507082956 34 201 4.0 4.0 0.00 0.00 0.00 87 1013.2
20260507082457 34 179 3.0 3.0 0.00 0.00 0.00 87 1013.2
20260507081956 34 166 3.0 5.0 0.00 0.00 0.00 85 1013.2
20260507081455 34 213 4.0 5.0 0.00 0.00 0.00 82 1013.2
20260507080955 34 196 4.0 5.0 0.00 0.00 0.00 82 1013.2
20260507080455 34 185 4.0 5.0 0.00 0.00 0.00 82 1013.2
20260507075955 34 192 4.0 5.0 0.00 0.00 0.00 83 1013.2
20260507075455 34 212 4.0 5.0 0.00 0.00 0.00 83 1013.2
20260507074958 34 199 3.0 4.0 0.00 0.00 0.00 84 1013.2
20260507074456 34 198 4.0 4.0 0.00 0.00 0.00 84 1013.2
20260507073955 34 202 3.0 4.0 0.00 0.00 0.00 85 1013.2
20260507073455 33 214 4.0 4.0 0.00 0.00 0.00 86 1013.5
20260507072956 33 211 4.0 5.0 0.00 0.00 0.00 87 1013.5
20260507072455 33 215 4.0 5.0 0.00 0.00 0.00 88 1013.5
20260507071956 33 218 4.0 4.0 0.00 0.00 0.00 88 1013.5
20260507071455 33 223 4.0 4.0 0.00 0.00 0.00 88 1013.5
20260507070955 33 216 3.0 4.0 0.00 0.00 0.00 90 1013.5
20260507070456 32 224 2.0 3.0 0.00 0.00 0.00 89 1013.5
20260507065956 32 238 3.0 3.0 0.00 0.00 0.00 88 1013.5
20260507065455 32 204 3.0 3.0 0.00 0.00 0.00 89 1013.5
20260507064956 32 180 2.0 3.0 0.00 0.00 0.00 90 1013.5
20260507064456 32 162 1.0 3.0 0.00 0.00 0.00 89 1013.9
20260507063955 32 160 1.0 5.0 0.00 0.00 0.00 90 1013.9
20260507063459 32 189 4.0 5.0 0.00 0.00 0.00 90 1013.9
20260507062955 31 175 4.0 5.0 0.00 0.00 0.00 90 1013.9
20260507062455 31 179 2.0 3.0 0.00 0.00 0.00 89 1013.9
20260507061955 30 162 0.0 3.0 0.00 0.00 0.00 89 1013.9
20260507061455 30 160 3.0 3.0 0.00 0.00 0.00 89 1013.9
20260507060955 30 166 3.0 4.0 0.00 0.00 0.00 89 1014.2
20260507060456 30 171 3.0 4.0 0.00 0.00 0.00 89 1014.2
20260507055955 30 165 2.0 3.0 0.00 0.00 0.00 87 1014.2
20260507055455 31 167 2.0 3.0 0.00 0.00 0.00 86 1014.2
20260507054955 31 170 2.0 3.0 0.00 0.00 0.00 86 1014.2
20260507054455 31 163 1.0 2.0 0.00 0.00 0.00 86 1014.2
20260507053955 32 180 1.0 2.0 0.00 0.00 0.00 86 1014.2
20260507053455 32 172 0.0 1.0 0.00 0.00 0.00 86 1014.2
20260507052956 32 180 0.0 2.0 0.00 0.00 0.00 85 1014.2
20260507052012 32 210 2.0 3.0 0.00 0.00 0.00 84 1014.6
20260507051455 33 207 3.0 3.0 0.00 0.00 0.00 83 1014.6
20260507050956 33 228 2.0 3.0 0.00 0.00 0.00 82 1014.6
20260507050456 34 226 4.0 4.0 0.00 0.00 0.00 80 1014.6
20260507045955 35 242 3.0 5.0 0.00 0.00 0.00 78 1014.9
20260507045455 35 235 4.0 7.0 0.00 0.00 0.00 75 1014.9
20260507044955 36 233 6.0 7.0 0.00 0.00 0.00 74 1014.9
20260507044455 37 236 6.0 7.0 0.00 0.00 0.00 73 1014.6
20260507043955 37 229 7.0 8.0 0.00 0.00 0.00 72 1014.9
20260507043455 37 234 7.0 9.0 0.00 0.00 0.00 73 1014.9
20260507042955 37 246 7.0 9.0 0.00 0.00 0.00 74 1014.9
20260507042455 37 225 7.0 10.0 0.00 0.00 0.00 74 1014.9
20260507041955 37 242 8.0 10.0 0.00 0.00 0.00 73 1014.9
20260507041455 37 237 8.0 10.0 0.00 0.00 0.00 74 1014.9
20260507040956 37 260 7.0 9.0 0.00 0.00 0.00 74 1014.9
20260507040456 37 237 7.0 8.0 0.00 0.00 0.00 73 1015.2
20260507035955 37 224 7.0 8.0 0.00 0.00 0.00 74 1015.2
20260507035455 37 240 8.0 9.0 0.00 0.00 0.00 74 1015.2
20260507034956 37 244 8.0 10.0 0.00 0.00 0.00 73 1015.2
20260507034458 37 230 7.0 9.0 0.00 0.00 0.00 73 1015.2
20260507033955 37 220 6.0 9.0 0.00 0.00 0.00 75 1015.2
20260507033456 37 232 7.0 9.0 0.00 0.00 0.00 74 1015.2
20260507032956 37 225 7.0 9.0 0.00 0.00 0.00 74 1015.2
20260507032455 37 236 7.0 8.0 0.00 0.00 0.00 74 1015.2
20260507031955 37 217 6.0 8.0 0.00 0.00 0.00 75 1015.2
20260507031457 38 234 7.0 8.0 0.00 0.00 0.00 74 1015.2
20260507030955 38 223 7.0 8.0 0.00 0.00 0.00 74 1015.2
20260507030455 38 238 7.0 9.0 0.00 0.00 0.00 73 1015.2
20260507025956 38 225 7.0 9.0 0.00 0.00 0.00 75 1015.2
20260507025456 37 231 8.0 9.0 0.00 0.00 0.00 75 1015.2
20260507024956 37 235 6.0 8.0 0.00 0.00 0.00 76 1015.2
20260507024456 37 240 7.0 10.0 0.00 0.00 0.00 75 1015.2
20260507023956 37 246 8.0 10.0 0.00 0.00 0.00 75 1015.2
20260507023455 37 242 7.0 9.0 0.00 0.00 0.00 76 1015.2
20260507022955 37 249 7.0 10.0 0.00 0.00 0.00 78 1015.2
20260507022456 36 239 9.0 10.0 0.00 0.00 0.00 78 1015.2
20260507021955 36 237 6.0 8.0 0.00 0.00 0.00 77 1015.2
20260507021456 36 241 6.0 8.0 0.00 0.00 0.00 77 1015.2
20260507020956 36 234 7.0 8.0 0.00 0.00 0.00 77 1015.2
20260507020455 36 239 7.0 9.0 0.00 0.00 0.00 76 1015.2
20260507015956 36 246 7.0 9.0 0.00 0.00 0.00 77 1015.2
20260507015456 36 241 7.0 10.0 0.00 0.00 0.00 77 1015.2
20260507014955 36 232 8.0 11.0 0.00 0.00 0.00 78 1014.9
20260507014455 36 248 10.0 11.0 0.00 0.00 0.00 77 1014.9
20260507013956 37 248 6.0 9.0 0.00 0.00 0.00 76 1014.9
20260507013456 37 259 8.0 10.0 0.00 0.00 0.00 74 1014.9
20260507012957 37 254 7.0 11.0 0.00 0.00 0.00 73 1014.9
20260507012455 37 242 8.0 11.0 0.00 0.00 0.00 72 1014.9
20260507011955 38 265 8.0 11.0 0.00 0.00 0.00 71 1014.9
20260507011455 38 249 9.0 11.0 0.00 0.00 0.00 70 1014.9
20260507010956 38 257 9.0 12.0 0.00 0.00 0.00 71 1014.9
20260507010458 39 254 9.0 11.0 0.00 0.00 0.00 71 1014.9
20260507005955 39 258 10.0 14.0 0.00 0.00 0.00 69 1014.9
20260507005456 39 251 9.0 13.0 0.00 0.00 0.00 69 1014.9
20260507004955 39 285 8.0 14.0 0.00 0.00 0.00 68 1014.9
20260507004455 39 275 11.0 14.0 0.00 0.00 0.00 67 1014.9
20260507003955 39 270 9.0 13.0 0.00 0.00 0.00 68 1014.9
20260507003455 40 246 9.0 13.0 0.00 0.00 0.00 68 1014.9
20260507002955 40 222 10.0 13.0 0.00 0.00 0.00 68 1014.9
20260507002456 40 278 9.0 13.0 0.00 0.00 0.00 68 1014.9
20260507001955 40 281 10.0 14.0 0.00 0.00 0.00 67 1014.9
20260507001455 40 283 12.0 15.0 0.00 0.00 0.00 66 1014.9
20260507000955 40 283 10.0 14.0 0.00 0.00 0.00 66 1014.9
20260507000455 40 268 11.0 15.0 0.00 0.00 0.00 68 1014.6
20260506235955 40 287 10.0 13.0 0.00 0.00 0.00 67 1014.9
20260506235455 40 300 9.0 14.0 0.00 0.00 0.00 66 1014.9
20260506234956 40 285 7.0 15.0 0.00 0.00 0.00 67 1014.9
20260506234455 41 261 12.0 15.0 0.00 0.00 0.00 68 1014.9
20260506233955 41 268 10.0 17.0 0.00 0.00 0.00 65 1014.9
20260506233455 41 175 11.0 14.0 0.00 0.00 0.00 65 1014.9
20260506232955 41 289 8.0 15.0 0.00 0.00 0.00 66 1014.9
20260506232455 41 284 11.0 15.0 0.00 0.00 0.00 64 1014.9
20260506231956 41 268 11.0 18.0 0.00 0.00 0.00 64 1014.9
20260506231455 41 267 11.0 17.0 0.00 0.00 0.00 65 1014.6
20260506230956 41 278 11.0 16.0 0.00 0.00 0.00 65 1014.6
20260506230457 41 275 13.0 17.0 0.00 0.00 0.00 65 1014.6
20260506225955 41 261 12.0 16.0 0.00 0.00 0.00 65 1014.6
20260506225455 42 251 11.0 16.0 0.00 0.00 0.00 64 1014.6
20260506224955 42 303 10.0 15.0 0.00 0.00 0.00 63 1014.6
20260506224455 42 260 9.0 16.0 0.00 0.00 0.00 63 1014.6
20260506223955 42 254 12.0 15.0 0.00 0.00 0.00 61 1014.9
20260506223455 42 278 11.0 15.0 0.00 0.00 0.00 62 1014.6
20260506222956 41 262 12.0 15.0 0.00 0.00 0.00 61 1014.6
20260506222456 42 293 13.0 16.0 0.00 0.00 0.00 61 1014.6
20260506221956 42 319 10.0 14.0 0.00 0.00 0.00 64 1014.6
20260506221455 42 289 10.0 16.0 0.00 0.00 0.00 63 1014.6
20260506220955 42 286 11.0 14.0 0.00 0.00 0.00 63 1014.6
20260506220455 42 277 11.0 15.0 0.00 0.00 0.00 61 1014.6
20260506215955 42 289 12.0 17.0 0.00 0.00 0.00 63 1014.6
20260506215456 42 303 13.0 17.0 0.00 0.00 0.00 61 1014.6
20260506214956 42 287 10.0 16.0 0.00 0.00 0.00 62 1014.6
20260506214455 42 268 10.0 16.0 0.00 0.00 0.00 63 1014.2
20260506213956 42 231 12.0 16.0 0.00 0.00 0.00 62 1014.2
20260506213457 43 285 9.0 17.0 0.00 0.00 0.00 61 1014.2
20260506212955 43 267 12.0 16.0 0.00 0.00 0.00 63 1014.2
20260506212457 43 268 14.0 20.0 0.00 0.00 0.00 61 1014.2
20260506211955 43 267 15.0 20.0 0.00 0.00 0.00 62 1014.6
20260506211455 43 283 11.0 16.0 0.00 0.00 0.00 62 1014.2
20260506210956 43 261 13.0 19.0 0.00 0.00 0.00 62 1014.2
20260506210456 43 267 15.0 19.0 0.00 0.00 0.00 62 1014.2
20260506205956 43 257 16.0 18.0 0.00 0.00 0.00 62 1014.2
20260506205455 43 259 15.0 19.0 0.00 0.00 0.00 61 1014.2
20260506204959 44 285 12.0 18.0 0.00 0.00 0.00 62 1014.2
20260506204456 43 254 10.0 16.0 0.00 0.00 0.00 60 1014.2
20260506203956 43 287 11.0 14.0 0.00 0.00 0.00 60 1014.2
20260506203455 43 264 13.0 17.0 0.00 0.00 0.00 59 1014.2
20260506202955 44 264 11.0 19.0 0.00 0.00 0.00 63 1014.2
20260506202456 44 256 17.0 20.0 0.00 0.00 0.00 60 1014.2
20260506201957 44 311 10.0 15.0 0.00 0.00 0.00 58 1014.6
20260506201455 44 277 13.0 17.0 0.00 0.00 0.00 58 1014.6
20260506200955 44 302 14.0 17.0 0.00 0.00 0.00 58 1014.2
20260506200455 44 288 12.0 16.0 0.00 0.00 0.00 60 1014.2
20260506195956 44 284 11.0 17.0 0.00 0.00 0.00 59 1014.2
20260506195456 45 254 10.0 17.0 0.00 0.00 0.00 60 1014.2
20260506194956 45 246 10.0 16.0 0.00 0.00 0.00 60 1014.2
20260506194455 44 262 11.0 16.0 0.00 0.00 0.00 60 1014.2
20260506193955 44 280 11.0 14.0 0.00 0.00 0.00 60 1014.2
20260506193455 44 247 13.0 20.0 0.00 0.00 0.00 59 1014.2
20260506192956 44 253 14.0 17.0 0.00 0.00 0.00 61 1014.2
20260506192456 44 297 14.0 17.0 0.00 0.00 0.00 58 1014.6
20260506191956 44 283 12.0 18.0 0.00 0.00 0.00 59 1014.6
20260506191455 44 292 14.0 16.0 0.00 0.00 0.00 60 1014.6
20260506190956 44 251 11.0 15.0 0.00 0.00 0.00 58 1014.2
20260506190456 44 258 11.0 16.0 0.00 0.00 0.00 59 1014.6
20260506185955 43 273 14.0 16.0 0.00 0.00 0.00 59 1014.6
20260506185456 43 244 12.0 17.0 0.00 0.00 0.00 62 1014.6
20260506184955 43 245 11.0 15.0 0.00 0.00 0.00 61 1014.6
20260506184455 42 253 10.0 15.0 0.00 0.00 0.00 60 1014.2
20260506183955 43 254 10.0 16.0 0.00 0.00 0.00 60 1014.6
20260506183455 43 262 8.0 13.0 0.00 0.00 0.00 61 1014.6
20260506182955 44 249 11.0 15.0 0.00 0.00 0.00 60 1014.6
20260506182456 45 287 11.0 15.0 0.00 0.00 0.00 60 1014.6
20260506181956 44 296 9.0 16.0 0.00 0.00 0.00 62 1014.6
20260506181455 44 294 11.0 15.0 0.00 0.00 0.00 60 1014.6
20260506180955 43 260 12.0 16.0 0.00 0.00 0.00 62 1014.2
20260506180456 44 303 10.0 17.0 0.00 0.00 0.00 60 1014.6
20260506175955 44 254 12.0 17.0 0.00 0.00 0.00 60 1014.6
20260506175457 44 244 15.0 17.0 0.00 0.00 0.00 60 1014.6
20260506174956 43 263 8.0 18.0 0.00 0.00 0.00 60 1014.6
20260506174456 43 268 12.0 18.0 0.00 0.00 0.00 64 1014.6
20260506173956 43 272 14.0 17.0 0.00 0.00 0.00 61 1014.6
20260506173456 43 254 12.0 16.0 0.00 0.00 0.00 63 1014.6
20260506172956 44 260 7.0 15.0 0.00 0.00 0.00 61 1014.9
20260506172500 44 252 12.0 15.0 0.00 0.00 0.00 61 1014.9
20260506171956 44 296 12.0 16.0 0.00 0.00 0.00 59 1014.9
20260506171456 46 290 13.0 17.0 0.00 0.00 0.00 60 1014.9
20260506170955 44 310 13.0 17.0 0.00 0.00 0.00 63 1014.9
20260506170500 43 280 11.0 15.0 0.00 0.00 0.00 61 1014.9
20260506165955 42 284 12.0 18.0 0.00 0.00 0.00 59 1014.9
20260506165455 43 288 12.0 18.0 0.00 0.00 0.00 62 1014.9
20260506164955 43 258 11.0 16.0 0.00 0.00 0.00 58 1014.9
20260506164455 44 299 12.0 18.0 0.00 0.00 0.00 57 1014.9
20260506163956 43 297 9.0 13.0 0.00 0.00 0.00 62 1014.9
20260506163456 42 268 9.0 16.0 0.00 0.00 0.00 64 1014.9
20260506162956 42 260 11.0 15.0 0.00 0.00 0.00 62 1014.9
20260506162455 42 260 10.0 15.0 0.00 0.00 0.00 63 1014.9
20260506161955 42 285 10.0 12.0 0.00 0.00 0.00 60 1014.9
20260506161455 42 310 9.0 12.0 0.00 0.00 0.00 60 1014.9
20260506160956 43 291 9.0 15.0 0.00 0.00 0.00 58 1014.9
20260506160457 42 270 8.0 16.0 0.00 0.00 0.00 63 1014.9
20260506155957 41 296 10.0 15.0 0.00 0.00 0.00 61 1015.2